weather.gov     
National Weather Service

Weather Roundup
NWS Homepage
This page is being discontinued on March 12, 2014.
The same data is available at this site. Please update your bookmarks.
Thank you, and we apologize for the inconvenience.
Please send an email to SR-SRH.Webmaster@noaa.gov with any concerns.


Current Version
Previous Version:    01  02  03  04  05  06  07  08  09  10  11  12  13  14  15  16  17  18  19  20  21  22  23  24  25  26  27  28  29  30  
   31  32  33  34  35  36  37  38  39  40  41  42  43  44  45  46  47  48  49  50  51  52  53  54  55  56  57  58  59  60  
[Printable]
100
NZUS59 KLOT 301610
HRRLOT

CHICAGO AREA WEATHER ROUNDUP
NATIONAL WEATHER SERVICE CHICAGO/ROMEOVILLE IL
1100 AM CDT THU OCT 30 2014

NOTE: "FAIR" INDICATES FEW OR NO CLOUDS BELOW 12,000 FEET WITH NO
SIGNIFICANT WEATHER AND/OR OBSTRUCTIONS TO VISIBILITY.

* THESE STATIONS ARE NOT UNDER NWS QUALITY CONTROL. THEY ALSO MAY NOT
  REPORT WEATHER SUCH AS PRECIPITATION OR FOG.

ILZ005-006-012>014-019>023-301700-
NORTHEAST ILLINOIS

CITY           SKY/WX    TMP DP  RH WIND       PRES   REMARKS
OHARE          PTSUNNY   47  34  60 SW9       30.12F
MIDWAY         PTSUNNY   48  35  60 SW10      30.13F
AURORA         MOSUNNY   48  36  63 SW10      30.13S
LANSING*       PTSUNNY   48  36  64 SW9       30.14F
JOLIET*        MOSUNNY   47  35  64 SW6       30.14S
WAUKEGAN       PTSUNNY   45  33  63 SW10      30.11F
DUPAGE AIRPORT MOSUNNY   48  35  60 S8        30.12S
WHEELING       PTSUNNY   47  34  60 SW7       30.13F
MORRIS*        MOSUNNY   47  38  69 SW6       30.13S
LEWIS AIRPORT* MOSUNNY   47  35  62 SW8       30.13S
NORTHERLY IS     N/A     47  32  56 SW9         N/A
$$

WIZ051-052-058>065-066-070>072-301700-
SOUTHEAST WISCONSIN

CITY           SKY/WX    TMP DP  RH WIND       PRES   REMARKS
MILWAUKEE      PTSUNNY   44  34  67 SW7       30.10F
KENOSHA*       PTSUNNY   45  36  70 SW8       30.11F
RACINE*        CLOUDY    46  34  62 SW5       30.12F
BURLINGTON     PTSUNNY   44  35  70 SW6       30.10S
WAUKESHA       SUNNY     41  34  75 SW6       30.11F
WEST BEND      PTSUNNY   45  32  61 W10       30.09S
$$

INZ001>003-010>013-019-020-301700-
NORTHWEST INDIANA

CITY           SKY/WX    TMP DP  RH WIND       PRES   REMARKS
GARY*          PTSUNNY   48  32  53 SW8       30.14F
MICHIGAN CITY* NOT AVBL
RENSSELAER*    NOT AVBL
VALPARAISO     CLOUDY    47  33  58 SW9       30.15S
$$

LMZ740>746-301700-
SOUTHERN LAKE MICHIGAN

STATION/POSITION TIME  SKY/WX   TEMP WIND        PRES    VSBY
                                AIR  DIR/SP/G
                 (UTC)          (F)  (DEG/KT/KT) (MB)    (MI)
HARRISON CRIB    1500            45  200/ 11/ 14   N/A
BURNHAM HARBOR   1600            48  180/  6/  8   N/A
CALUMET HARBOR   1600            46  210/  6/  8 1019.0F
BURNS HARBOR     NOT AVBL
MICHIGAN CITY    1600            46  200/ 11/ 13   N/A
$$

ABBREVIATIONS USED IN REMARKS
   TC - TEMPERATURE IN CELSIUS
  WCI - WIND CHILL INDEX
   HX - HEAT INDEX
  VSB - VISIBILITY
$$




U.S. Dept. of Commerce
NOAA National Weather Service
1325 East West Highway
Silver Spring, MD 20910
E-mail: w-nws.webmaster@noaa.gov
Page last modified: May 16, 2007
NATIONAL WEATHER SERVICE: for Safety, for Work, for Fun - FOR LIFE